SCP
0 0 0 0 0 0 0 0 0 0 0 0 0 0 0 0 0 0 0 0 0 0 0 0 0 0 0 0 0 0 0 0 0 0 0 0 0 0 0 0 0 0 0
0 0 0 0 0 0 0 0 0 0 0 0 0 0 0 0 0 0 0 0 0 0 0 0 0 0 0 0 0 0 0 0 0 0 0 0 0 0 0 0 0 0 0
0 0 0 0 0 0 0 0 0 0 0 0 0 0 0 0 0 0 0 0 0 0 0 0 0 0 -0 -0 0 0 0 0 0 0 0 0 0 0 0 0 0 0 0
0 0 0 0 0 0 0 0 0 0 0 0 0 0 0 0 0 0 0 0 0 0 0 0 0 -0 -0 0 0 0 0 0 0 0 0 0 0 0 0 0 0 0 0
0 0 0 0 0 0 0 0 0 0 0 0 0 0 0 0 0 0 0 0 0 0 0 -0 0 -0 0 0 0 0 0 0 0 0 0 0 0 0 0 0 0 0 0
0 0 0 0 0 0 0 0 0 0 0 0 0 0 0 0 0 0 0 0 0 -0 -0 0 -0 0 0 0 0 0 0 0 0 0 0 0 0 0 0 0 0 0 0
0 0 0 0 0 0 0 0 0 0 0 0 0 0 0 0 0 0 0 0 0 -0 -0 -0 0 0 0 0 0 0 0 0 0 0 0 0 0 0 0 0 0 0 0
0 0 0 0 0 0 0 0 0 0 0 0 0 0 0 0 0 0 0 0 -0 -0 -0 -0 0 0 0 0 0 0 0 0 0 0 0 0 0 0 0 0 0 0 0
0 0 0 0 0 0 0 0 0 0 0 0 0 0 0 0 0 0 0 0 -0 -0 0 0 0 0 0 0 0 0 0 0 0 0 0 0 0 0 0 0 0 0 0
0 0 0 0 0 0 0 0 0 0 0 0 0 0 0 0 0 0 0 0 0 0 0 0 0 0 0 0 0 0 0 0 0 0 0 0 0 0 0 0 0 0 0
0 -0 0 0 0 0 0 0 0 0 0 0 0 0 0 0 0 0 0 0 0 0 0 0 0 0 0 0 0 0 0 0 0 0 0 0 -0 0 0 0 0 0 0
0 -0 0 0 0 -0 0 0 0 0 0 0 0 0 0 0 0 0 0 0 0 0 0 0 0 0 0 0 0 0 0 0 0 0 0 0 0 0 0 0 0 0 0
0 0 0 -0 0 -0 -0 -0 -0 -0 0 0 0 0 0 0 0 0 0 0 0 0 0 0 0 0 0 0 0 0 0 0 0 0 0 0 0 0 0 0 0 0 0
-0 -0 -0 -0 -0 -0 -0 -0 -0 -0 0 0 -0 0 0 0 0 0 0 0 0 0 0 0 0 0 0 0 0 0 0 0 0 0 0 0 0 0 0 0 0 0 0
-0 -0 -0 -0 -0 -0 -0 -0 -0 -0 0 0 -0 0 0 0 0 0 0 0 0 0 0 0 0 0 0 0 0 0 0 0 0 0 0 0 0 0 0 0 0 0 0
-0 -0 -0 -0 -0 -0 -0 -0 -0 -0 -0 -0 -0 0 -0 0 0 -0 -0 0 0 0 0 0 0 0 0 0 0 0 0 0 0 0 0 0 -0 0 0 0 0 0 -0
-0 -0 -0 -0 -0 -0 -0 -0 -0 -0 -0 -0 -0 0 -0 0 0 -0 -0 -0 0 0 0 0 0 0 0 -0 0 0 0 0 0 0 0 0 0 0 -0 -0 0 0 0
-0 -0 -0 -0 -0 -0 -0 -0 -0 -0 -0 -0 0 0 -0 -0 0 0 0 0 0 0 0 0 0 0 0 0 -0 0 0 0 0 0 0 0 0 -0 0 0 0 0 0
-0 -0 -0 -0 -0 -0 -0 -0 -0 -0 -0 -0 -0 0 -0 -0 0 0 0 0 0 0 0 0 0 0 0 0 0 0 0 0 0 0 -0 0 0 0 0 0 0 0 0
-0 -0 -0 -0 -0 -0 -0 -0 -0 -0 -0 -0 -0 -0 0 0 0 0 0 0 0 -0 0 0 0 0 0 0 0 0 0 0 0 0 0 0 0 0 0 0 0 0 0
-0 -0 -0 -0 -0 -0 -0 -0 -0 -0 -0 -0 0 0 0 0 0 0 0 0 0 0 0 0 -0 0 0 0 0 0 0 0 0 0 0 0 0 0 0 0 0 -0 0
-0 -0 -0 -0 -0 -0 -0 -0 -0 -0 -0 -0 -0 -0 0 0 0 0 0 0 0 0 0 0 0 0 -0 -0 0 0 0 0 0 -0 -0 -0 -0 -0 0 0 0 0 0
-0 -0 -0 -0 -0 -0 -0 -0 -0 -0 -0 -0 -0 -0 0 0 0 0 0 0 0 0 0 0 0 -0 -0 -0 -0 0 0 0 0 -0 -0 0 0 0 0 0 0 0 0
-0 -0 -0 -0 -0 -0 -0 -0 -0 -0 -0 -0 -0 -0 -0 0 0 0 0 0 0 0 0 0 0 -0 -0 -0 -0 -0 -0 -0 -0 0 0 0 0 0 0 0 -0 -0 0
0 0 -0 -0 -0 -0 -0 -0 -0 -0 -0 -0 0 0 0 -0 0 0 0 0 0 0 0 0 0 0 -0 -0 0 -0 0 0 0 -0 -0 0 0 0 0 0 0 0 0
0 0 0 0 -0 -0 -0 -0 -0 -0 -0 -0 0 0 0 0 0 0 0 0 0 0 0 0 -0 -0 -0 -0 -0 -0 -0 -0 -0 0 0 0 0 0 0 0 0 0 0
Wind_Speed_500mb
72 48 72 72 74 66 55 40 29 25 20 17 14 12 20 26 27 28 19 21 24 23 22 20 21 22 20 20 22 33 36 32 28 26 29 28 28 26 32 33 34 33 33
47 38 50 69 78 68 48 33 28 22 19 14 13 14 22 23 29 27 17 19 22 23 20 20 18 16 15 17 22 31 38 34 31 29 26 17 23 26 27 29 32 33 31
45 47 58 77 73 61 43 32 29 21 16 9 7 14 21 25 30 22 14 18 21 14 15 19 17 14 12 16 22 29 34 37 33 28 20 15 11 30 28 29 30 31 31
46 49 69 78 70 50 35 32 26 18 11 8 7 12 20 28 21 14 10 12 9 7 11 14 15 13 13 17 21 26 31 31 30 34 34 15 16 20 15 24 29 29 27
41 55 72 77 58 42 35 32 24 15 9 12 9 11 20 22 15 11 8 7 2 9 13 16 16 14 14 17 20 26 28 26 27 34 36 33 9 35 38 30 48 36 39
44 58 68 62 48 37 35 31 24 12 9 12 6 13 20 18 15 13 10 10 9 14 19 20 16 14 13 14 17 23 26 26 26 29 33 25 27 35 37 36 50 44 34
47 57 67 62 49 42 38 31 23 13 10 13 7 13 18 13 15 16 14 6 8 18 24 21 17 14 15 13 11 15 20 17 25 27 27 35 23 36 30 45 45 40 52
45 55 67 59 48 43 38 31 20 16 14 11 6 7 15 11 14 18 14 3 10 19 26 23 19 16 13 10 8 15 23 19 29 28 28 27 29 38 15 43 56 55 52
53 61 63 55 47 42 39 30 21 19 19 12 6 1 7 12 14 18 12 7 13 21 23 23 21 12 14 9 9 13 14 16 26 23 27 25 32 46 46 36 63 61 38
53 59 62 56 43 38 34 28 21 18 20 12 7 2 3 12 15 14 9 12 15 20 20 22 23 14 15 11 9 9 10 14 19 19 20 28 39 52 40 53 51 49 59
60 63 63 52 40 38 34 28 25 24 19 12 8 6 2 9 10 9 7 11 11 17 20 21 21 20 15 12 9 11 10 12 18 22 28 31 40 50 46 43 49 52 60
61 63 62 53 47 44 36 31 28 27 20 14 14 9 5 7 7 7 6 8 17 18 20 20 22 22 18 15 11 14 15 13 19 23 32 31 41 43 50 52 51 43 46
59 63 63 57 52 48 38 36 32 26 22 17 17 12 2 4 6 8 12 12 19 20 24 22 22 24 22 19 20 17 18 17 15 18 25 34 43 49 52 47 45 36 38
66 65 65 60 56 50 41 37 36 30 26 21 19 14 2 7 7 10 19 19 22 26 28 24 24 24 23 19 18 23 20 18 16 17 25 33 40 49 44 51 39 37 40
66 68 68 64 60 55 45 36 38 34 30 23 20 14 16 16 16 16 26 24 24 25 25 27 25 22 20 19 21 19 11 10 9 16 23 31 38 50 46 42 41 46 48
74 72 69 65 63 58 50 42 43 38 34 26 20 21 26 20 20 20 28 27 22 22 23 23 21 17 15 15 16 13 7 10 13 25 24 29 44 50 45 37 42 35 42
78 78 74 69 64 61 54 50 45 41 39 31 23 30 28 18 21 21 25 23 20 17 21 21 14 12 16 18 19 19 8 19 25 28 32 39 45 43 41 46 39 34 29
78 77 74 72 64 59 56 50 45 45 44 38 28 34 29 29 28 19 20 20 20 16 17 20 19 17 19 23 27 20 24 30 26 33 32 44 54 55 50 42 33 24 25
74 75 69 66 61 61 58 56 52 47 49 46 36 35 35 34 26 23 21 16 15 18 18 23 23 23 33 34 29 31 34 31 31 35 45 50 44 50 40 28 28 28 25
69 71 70 69 66 64 63 62 60 54 55 49 41 35 43 39 30 24 22 19 13 16 21 22 24 23 29 32 29 28 36 38 36 39 39 41 43 37 30 28 23 22 21
70 68 72 72 68 67 69 67 66 60 51 49 44 38 47 47 37 28 26 22 17 12 22 23 28 29 28 31 29 27 27 29 33 35 37 35 32 29 31 28 22 19 20
72 67 71 73 73 72 74 72 69 54 51 55 48 43 44 50 44 35 32 26 23 18 24 27 28 30 30 29 29 29 28 30 30 34 33 30 31 31 33 31 25 24 20
82 73 73 77 74 77 76 75 68 61 57 59 51 49 46 48 43 46 41 37 30 28 28 33 35 34 32 30 30 30 28 22 21 22 29 30 31 32 31 29 31 33 26
89 80 77 77 79 81 81 71 70 64 62 63 53 54 57 51 51 47 46 42 38 34 39 40 38 43 41 36 34 31 30 28 27 24 25 32 33 33 32 35 36 34 29
91 85 82 78 78 77 83 79 73 69 69 63 58 56 60 60 55 57 50 44 41 34 37 46 44 42 46 51 43 39 36 33 32 34 34 38 43 45 46 44 42 38 34
94 90 86 75 74 76 82 79 78 75 73 71 67 61 59 67 62 61 61 53 43 37 32 25 40 40 37 33 45 50 44 39 36 41 42 46 50 51 53 50 47 43 39
Wind_Direction_500mb
244 241 233 226 205 201 200 201 212 212 219 219 242 287 316 319 321 317 287 278 280 274 272 245 238 252 262 252 237 214 207 210 206 211 216 213 222 241 234 240 222 228 224
243 236 221 204 198 197 192 199 203 206 202 219 251 296 315 321 321 316 292 283 281 276 259 232 233 248 244 229 197 188 197 200 196 205 204 217 229 222 229 214 218 221 207
258 226 202 194 192 192 189 201 199 198 198 231 255 302 319 320 320 322 293 291 295 284 237 210 219 221 212 188 184 187 188 192 200 202 175 159 190 205 216 214 211 202 203
239 211 193 188 189 184 188 193 193 188 202 220 260 308 329 335 333 341 324 307 310 209 181 202 194 182 182 181 178 181 183 195 198 191 201 179 192 173 170 208 205 192 182
212 197 191 187 180 180 188 187 185 182 219 224 266 324 337 342 349 353 329 321 233 191 182 169 178 176 180 181 185 188 194 195 197 206 200 213 223 191 165 159 160 185 185
188 191 185 176 173 179 185 185 182 192 208 204 241 327 331 336 350 349 335 309 232 196 172 167 167 162 155 156 170 179 189 201 203 208 205 218 225 185 167 142 142 161 158
184 187 178 175 177 182 182 182 186 208 201 192 236 325 337 334 1 357 342 314 189 186 176 169 161 156 144 147 159 184 180 191 207 204 210 229 225 181 191 165 156 127 155
188 185 179 175 181 182 182 181 192 182 194 202 216 334 339 342 350 352 5 15 182 178 176 171 170 161 161 153 152 167 173 193 187 202 213 213 194 187 214 184 163 144 146
190 184 177 182 182 184 183 184 180 171 188 201 242 312 339 8 355 2 21 100 152 168 168 173 172 177 179 169 159 166 184 181 188 198 206 212 193 180 161 202 185 165 143
185 181 180 182 183 184 179 185 180 173 186 183 155 117 9 3 14 19 66 111 127 153 165 170 173 170 181 175 154 167 166 173 182 200 201 188 183 180 178 178 172 181 168
185 181 182 182 180 179 182 187 183 186 189 182 176 208 307 356 22 25 111 79 143 156 166 175 185 185 179 166 165 152 148 149 167 190 177 173 176 180 178 176 181 188 181
182 182 181 180 182 181 182 189 185 193 184 188 185 185 260 339 30 30 135 97 130 148 162 163 168 171 162 143 152 146 136 137 150 157 177 175 174 179 175 171 164 179 180
182 183 182 182 187 185 184 189 186 184 183 187 182 184 240 17 50 32 138 126 128 133 142 145 153 152 144 131 132 133 131 130 135 138 155 162 169 172 174 170 168 174 173
184 183 185 187 191 188 187 188 186 188 186 183 189 181 188 112 65 70 131 129 121 129 138 139 144 145 145 145 132 132 136 140 144 150 164 162 173 171 155 152 164 175 170
186 188 190 191 194 191 187 184 186 187 188 187 192 182 159 117 94 96 123 131 124 131 135 141 144 146 149 152 160 153 134 161 157 151 168 170 173 172 146 153 139 139 144
191 192 194 195 197 193 188 184 186 188 190 191 186 170 161 128 110 101 127 123 126 139 143 143 150 149 149 163 175 187 198 197 179 156 174 162 170 159 148 144 142 150 148
194 194 196 197 198 196 189 184 185 187 193 191 182 169 165 170 139 111 119 120 107 126 154 155 147 149 158 158 155 169 156 147 143 148 160 161 160 159 154 145 140 146 159
197 199 198 199 199 197 192 183 183 189 194 190 183 178 175 174 169 153 128 118 105 105 145 148 139 129 132 142 146 147 139 137 135 136 137 144 141 147 147 151 153 148 144
207 200 197 197 198 197 192 186 187 192 196 193 186 183 179 181 178 179 175 152 118 108 128 143 146 129 116 122 128 128 136 141 143 147 147 144 138 145 146 146 140 144 141
207 201 200 201 199 198 194 190 191 195 198 195 189 184 187 190 188 185 180 171 139 122 131 138 150 151 144 127 138 130 141 135 138 148 159 153 147 150 151 143 138 151 144
210 204 204 203 200 199 196 196 195 198 197 195 190 188 193 195 200 196 193 186 177 152 154 149 146 150 157 155 151 153 152 154 153 156 162 172 175 171 164 153 149 154 154
206 207 206 207 204 200 198 199 201 196 195 197 191 193 195 195 199 202 198 203 207 193 177 175 168 161 155 158 162 164 162 159 162 165 166 166 169 171 176 179 185 200 213
206 208 207 209 207 203 202 203 204 197 195 198 195 198 194 193 192 199 201 204 205 211 196 189 190 187 181 177 172 167 170 175 172 166 173 177 179 182 187 194 206 214 227
204 208 209 212 208 205 206 209 205 198 196 199 198 199 203 198 195 197 203 208 210 211 207 197 193 198 200 196 192 191 193 196 194 194 188 192 193 194 197 200 202 208 210
205 209 212 214 215 207 207 209 208 201 199 198 200 200 209 208 203 206 205 207 214 220 219 213 203 200 205 207 206 206 204 204 207 207 206 200 200 201 199 200 202 204 212
204 208 213 212 214 212 209 210 210 205 202 198 202 204 209 211 211 212 214 217 220 226 233 235 222 212 216 212 215 217 216 215 215 212 212 208 206 205 202 202 206 212 222
Wind_Speed_850mb
72 48 72 72 74 66 55 40 29 25 20 17 14 12 20 26 27 28 19 21 24 23 22 20 21 22 20 20 22 33 36 32 28 26 29 28 28 26 32 33 34 33 33
47 38 50 69 78 68 48 33 28 22 19 14 13 14 22 23 29 27 17 19 22 23 20 20 18 16 15 17 22 31 38 34 31 29 26 17 23 26 27 29 32 33 31
45 47 58 77 73 61 43 32 29 21 16 9 7 14 21 25 30 22 14 18 21 14 15 19 17 14 12 16 22 29 34 37 33 28 20 15 11 30 28 29 30 31 31
46 49 69 78 70 50 35 32 26 18 11 8 7 12 20 28 21 14 10 12 9 7 11 14 15 13 13 17 21 26 31 31 30 34 34 15 16 20 15 24 29 29 27
41 55 72 77 58 42 35 32 24 15 9 12 9 11 20 22 15 11 8 7 2 9 13 16 16 14 14 17 20 26 28 26 27 34 36 33 9 35 38 30 48 36 39
44 58 68 62 48 37 35 31 24 12 9 12 6 13 20 18 15 13 10 10 9 14 19 20 16 14 13 14 17 23 26 26 26 29 33 25 27 35 37 36 50 44 34
47 57 67 62 49 42 38 31 23 13 10 13 7 13 18 13 15 16 14 6 8 18 24 21 17 14 15 13 11 15 20 17 25 27 27 35 23 36 30 45 45 40 52
45 55 67 59 48 43 38 31 20 16 14 11 6 7 15 11 14 18 14 3 10 19 26 23 19 16 13 10 8 15 23 19 29 28 28 27 29 38 15 43 56 55 52
53 61 63 55 47 42 39 30 21 19 19 12 6 1 7 12 14 18 12 7 13 21 23 23 21 12 14 9 9 13 14 16 26 23 27 25 32 46 46 36 63 61 38
53 59 62 56 43 38 34 28 21 18 20 12 7 2 3 12 15 14 9 12 15 20 20 22 23 14 15 11 9 9 10 14 19 19 20 28 39 52 40 53 51 49 59
60 63 63 52 40 38 34 28 25 24 19 12 8 6 2 9 10 9 7 11 11 17 20 21 21 20 15 12 9 11 10 12 18 22 28 31 40 50 46 43 49 52 60
61 63 62 53 47 44 36 31 28 27 20 14 14 9 5 7 7 7 6 8 17 18 20 20 22 22 18 15 11 14 15 13 19 23 32 31 41 43 50 52 51 43 46
59 63 63 57 52 48 38 36 32 26 22 17 17 12 2 4 6 8 12 12 19 20 24 22 22 24 22 19 20 17 18 17 15 18 25 34 43 49 52 47 45 36 38
66 65 65 60 56 50 41 37 36 30 26 21 19 14 2 7 7 10 19 19 22 26 28 24 24 24 23 19 18 23 20 18 16 17 25 33 40 49 44 51 39 37 40
66 68 68 64 60 55 45 36 38 34 30 23 20 14 16 16 16 16 26 24 24 25 25 27 25 22 20 19 21 19 11 10 9 16 23 31 38 50 46 42 41 46 48
74 72 69 65 63 58 50 42 43 38 34 26 20 21 26 20 20 20 28 27 22 22 23 23 21 17 15 15 16 13 7 10 13 25 24 29 44 50 45 37 42 35 42
78 78 74 69 64 61 54 50 45 41 39 31 23 30 28 18 21 21 25 23 20 17 21 21 14 12 16 18 19 19 8 19 25 28 32 39 45 43 41 46 39 34 29
78 77 74 72 64 59 56 50 45 45 44 38 28 34 29 29 28 19 20 20 20 16 17 20 19 17 19 23 27 20 24 30 26 33 32 44 54 55 50 42 33 24 25
74 75 69 66 61 61 58 56 52 47 49 46 36 35 35 34 26 23 21 16 15 18 18 23 23 23 33 34 29 31 34 31 31 35 45 50 44 50 40 28 28 28 25
69 71 70 69 66 64 63 62 60 54 55 49 41 35 43 39 30 24 22 19 13 16 21 22 24 23 29 32 29 28 36 38 36 39 39 41 43 37 30 28 23 22 21
70 68 72 72 68 67 69 67 66 60 51 49 44 38 47 47 37 28 26 22 17 12 22 23 28 29 28 31 29 27 27 29 33 35 37 35 32 29 31 28 22 19 20
72 67 71 73 73 72 74 72 69 54 51 55 48 43 44 50 44 35 32 26 23 18 24 27 28 30 30 29 29 29 28 30 30 34 33 30 31 31 33 31 25 24 20
82 73 73 77 74 77 76 75 68 61 57 59 51 49 46 48 43 46 41 37 30 28 28 33 35 34 32 30 30 30 28 22 21 22 29 30 31 32 31 29 31 33 26
89 80 77 77 79 81 81 71 70 64 62 63 53 54 57 51 51 47 46 42 38 34 39 40 38 43 41 36 34 31 30 28 27 24 25 32 33 33 32 35 36 34 29
91 85 82 78 78 77 83 79 73 69 69 63 58 56 60 60 55 57 50 44 41 34 37 46 44 42 46 51 43 39 36 33 32 34 34 38 43 45 46 44 42 38 34
94 90 86 75 74 76 82 79 78 75 73 71 67 61 59 67 62 61 61 53 43 37 32 25 40 40 37 33 45 50 44 39 36 41 42 46 50 51 53 50 47 43 39
Wind_Direction_850mb
244 241 233 226 205 201 200 201 212 212 219 219 242 287 316 319 321 317 287 278 280 274 272 245 238 252 262 252 237 214 207 210 206 211 216 213 222 241 234 240 222 228 224
243 236 221 204 198 197 192 199 203 206 202 219 251 296 315 321 321 316 292 283 281 276 259 232 233 248 244 229 197 188 197 200 196 205 204 217 229 222 229 214 218 221 207
258 226 202 194 192 192 189 201 199 198 198 231 255 302 319 320 320 322 293 291 295 284 237 210 219 221 212 188 184 187 188 192 200 202 175 159 190 205 216 214 211 202 203
239 211 193 188 189 184 188 193 193 188 202 220 260 308 329 335 333 341 324 307 310 209 181 202 194 182 182 181 178 181 183 195 198 191 201 179 192 173 170 208 205 192 182
212 197 191 187 180 180 188 187 185 182 219 224 266 324 337 342 349 353 329 321 233 191 182 169 178 176 180 181 185 188 194 195 197 206 200 213 223 191 165 159 160 185 185
188 191 185 176 173 179 185 185 182 192 208 204 241 327 331 336 350 349 335 309 232 196 172 167 167 162 155 156 170 179 189 201 203 208 205 218 225 185 167 142 142 161 158
184 187 178 175 177 182 182 182 186 208 201 192 236 325 337 334 1 357 342 314 189 186 176 169 161 156 144 147 159 184 180 191 207 204 210 229 225 181 191 165 156 127 155
188 185 179 175 181 182 182 181 192 182 194 202 216 334 339 342 350 352 5 15 182 178 176 171 170 161 161 153 152 167 173 193 187 202 213 213 194 187 214 184 163 144 146
190 184 177 182 182 184 183 184 180 171 188 201 242 312 339 8 355 2 21 100 152 168 168 173 172 177 179 169 159 166 184 181 188 198 206 212 193 180 161 202 185 165 143
185 181 180 182 183 184 179 185 180 173 186 183 155 117 9 3 14 19 66 111 127 153 165 170 173 170 181 175 154 167 166 173 182 200 201 188 183 180 178 178 172 181 168
185 181 182 182 180 179 182 187 183 186 189 182 176 208 307 356 22 25 111 79 143 156 166 175 185 185 179 166 165 152 148 149 167 190 177 173 176 180 178 176 181 188 181
182 182 181 180 182 181 182 189 185 193 184 188 185 185 260 339 30 30 135 97 130 148 162 163 168 171 162 143 152 146 136 137 150 157 177 175 174 179 175 171 164 179 180
182 183 182 182 187 185 184 189 186 184 183 187 182 184 240 17 50 32 138 126 128 133 142 145 153 152 144 131 132 133 131 130 135 138 155 162 169 172 174 170 168 174 173
184 183 185 187 191 188 187 188 186 188 186 183 189 181 188 112 65 70 131 129 121 129 138 139 144 145 145 145 132 132 136 140 144 150 164 162 173 171 155 152 164 175 170
186 188 190 191 194 191 187 184 186 187 188 187 192 182 159 117 94 96 123 131 124 131 135 141 144 146 149 152 160 153 134 161 157 151 168 170 173 172 146 153 139 139 144
191 192 194 195 197 193 188 184 186 188 190 191 186 170 161 128 110 101 127 123 126 139 143 143 150 149 149 163 175 187 198 197 179 156 174 162 170 159 148 144 142 150 148
194 194 196 197 198 196 189 184 185 187 193 191 182 169 165 170 139 111 119 120 107 126 154 155 147 149 158 158 155 169 156 147 143 148 160 161 160 159 154 145 140 146 159
197 199 198 199 199 197 192 183 183 189 194 190 183 178 175 174 169 153 128 118 105 105 145 148 139 129 132 142 146 147 139 137 135 136 137 144 141 147 147 151 153 148 144
207 200 197 197 198 197 192 186 187 192 196 193 186 183 179 181 178 179 175 152 118 108 128 143 146 129 116 122 128 128 136 141 143 147 147 144 138 145 146 146 140 144 141
207 201 200 201 199 198 194 190 191 195 198 195 189 184 187 190 188 185 180 171 139 122 131 138 150 151 144 127 138 130 141 135 138 148 159 153 147 150 151 143 138 151 144
210 204 204 203 200 199 196 196 195 198 197 195 190 188 193 195 200 196 193 186 177 152 154 149 146 150 157 155 151 153 152 154 153 156 162 172 175 171 164 153 149 154 154
206 207 206 207 204 200 198 199 201 196 195 197 191 193 195 195 199 202 198 203 207 193 177 175 168 161 155 158 162 164 162 159 162 165 166 166 169 171 176 179 185 200 213
206 208 207 209 207 203 202 203 204 197 195 198 195 198 194 193 192 199 201 204 205 211 196 189 190 187 181 177 172 167 170 175 172 166 173 177 179 182 187 194 206 214 227
204 208 209 212 208 205 206 209 205 198 196 199 198 199 203 198 195 197 203 208 210 211 207 197 193 198 200 196 192 191 193 196 194 194 188 192 193 194 197 200 202 208 210
205 209 212 214 215 207 207 209 208 201 199 198 200 200 209 208 203 206 205 207 214 220 219 213 203 200 205 207 206 206 204 204 207 207 206 200 200 201 199 200 202 204 212
204 208 213 212 214 212 209 210 210 205 202 198 202 204 209 211 211 212 214 217 220 226 233 235 222 212 216 212 215 217 216 215 215 212 212 208 206 205 202 202 206 212 222